Osaka Airport, Japan

7:56 PM JST on March 26, 2017 (GMT +0900)
Osaka International

Weather History for RJOO - July, 2014

Change the Weather History Date:

Tuesday, July 29, 2014

  Actual Average Record
Temperature  
Mean Temperature 83 °F -  
Max Temperature 95 °F 90 °F 96 °F (1996)
Min Temperature 71 °F 74 °F 46 °F (1998)
Cooling Degree Days 18    
Growing Degree Days 33 (Base 50)    
Moisture  
Dew Point 69 °F    
Average Humidity 56    
Maximum Humidity 83    
Minimum Humidity 44    
Precipitation  
Precipitation 0.00 in - - ()
Sea Level Pressure  
Sea Level Pressure 29.87 in    
Wind  
Wind Speed 6 mph ()    
Max Wind Speed 15 mph    
Max Gust Speed -    
Visibility 6.2 miles    
Events      
Averages and records for this station are not official NWS values.
T = Trace of Precipitation, MM = Missing Value Source: Averaged Metar Reports

Daily Weather History Graph

Daily Weather History Graph

Search for Another Location

Airport or City:

Trip Planner

Search our weather history database for the weather conditions in past years. The results will help you decide how hot, cold, wet, or windy it might be!

Date:

Astronomy

Jul. 29, 2014 Rise Set
Actual Time 5:05 AM JST 7:03 PM JST
Civil Twilight 4:37 AM JST 7:31 PM JST
Nautical Twilight 4:03 AM JST 8:05 PM JST
Astronomical Twilight 3:27 AM JST 8:41 PM JST
Moon 7:00 AM JST (7/29) 8:05 PM JST (7/29)
Length of Visible Light 14h 54m
Length of Day
13h 58m
Waxing Crescent, 4% of the Moon is Illuminated
Jul 29
Waxing Crescent
Aug 4
First Quarter
Aug 11
Full
Aug 17
Last Quarter
Aug 25
New

Hourly Weather History & Observations

Time (JST) Temp. Heat Index Dew Point Humidity Pressure Visibility Wind Dir Wind Speed Gust Speed Precip Events Conditions
5:00 AM 71.6 °F - 66.2 °F 83% 29.86 in - NW 3.5 mph - N/A   Clear
6:00 AM 73.4 °F - 66.2 °F 78% 29.89 in 6.2 mi Variable 2.3 mph - N/A   Partly Cloudy
7:00 AM 78.8 °F - 68.0 °F 69% 29.89 in 6.2 mi ENE 10.4 mph - N/A   Partly Cloudy
8:00 AM 80.6 °F 83.2 °F 68.0 °F 65% 29.89 in 6.2 mi East 12.7 mph - N/A   Scattered Clouds
9:00 AM 84.2 °F 87.3 °F 68.0 °F 58% 29.89 in 6.2 mi ENE 10.4 mph - N/A   Partly Cloudy
10:00 AM 86.0 °F 89.4 °F 68.0 °F 55% 29.89 in 6.2 mi East 8.1 mph - N/A   Partly Cloudy
10:46 AM 89.6 °F 94.7 °F 69.8 °F 52% 29.89 in 6.2 mi ESE 4.6 mph - N/A   Scattered Clouds
11:00 AM 89.6 °F 94.7 °F 69.8 °F 52% 29.89 in 6.2 mi Variable 5.8 mph - N/A   Scattered Clouds
12:00 PM 89.6 °F 93.4 °F 68.0 °F 49% 29.86 in 6.2 mi Variable 5.8 mph - N/A   Scattered Clouds
12:05 PM 93.2 °F 98.8 °F 69.8 °F 46% 29.86 in 6.2 mi WSW 6.9 mph - N/A   Scattered Clouds
1:00 PM 91.4 °F 95.4 °F 68.0 °F 46% 29.86 in 6.2 mi WSW 6.9 mph - N/A   Partly Cloudy
1:38 PM 95.0 °F 101.3 °F 69.8 °F 44% 29.86 in 6.2 mi Variable 5.8 mph - N/A   Partly Cloudy
2:00 PM 93.2 °F 97.7 °F 68.0 °F 44% 29.86 in 6.2 mi SW 8.1 mph - N/A   Partly Cloudy
3:00 PM 93.2 °F 98.8 °F 69.8 °F 46% 29.83 in 6.2 mi WSW 9.2 mph - N/A   Partly Cloudy
4:00 PM 91.4 °F 96.8 °F 69.8 °F 49% 29.83 in 6.2 mi WSW 10.4 mph - N/A   Partly Cloudy
5:00 PM 89.6 °F 94.7 °F 69.8 °F 52% 29.83 in 6.2 mi WSW 10.4 mph - N/A   Partly Cloudy
6:00 PM 86.0 °F 91.8 °F 71.6 °F 62% 29.86 in 6.2 mi SW 15.0 mph - N/A   Scattered Clouds
7:00 PM 86.0 °F 90.4 °F 69.8 °F 58% 29.89 in 6.2 mi SW 9.2 mph - N/A   Scattered Clouds
8:00 PM 86.0 °F 91.8 °F 71.6 °F 62% 29.89 in 6.2 mi WSW 8.1 mph - N/A   Scattered Clouds